Time,TemperatureF,DewpointF,PressureIn,WindDirection,WindDirectionDegrees,WindSpeedMPH,WindSpeedGustMPH,Humidity,HourlyPrecipIn,Conditions,Clouds,dailyrainin,SoftwareType,DateUTC
2013-06-29 00:01:00,68.0,-99.9,29.62,South,183,7.0,17.0,-999,-99.99,,,-99.99,,2013-06-29 04:01:00,
2013-06-29 00:11:00,68.0,-99.9,29.62,South,183,7.0,17.0,-999,-99.99,,,-99.99,,2013-06-29 04:11:00,
2013-06-29 00:32:00,68.0,-99.9,29.62,South,183,10.0,17.0,-999,-99.99,,,-99.99,,2013-06-29 04:32:00,
2013-06-29 00:41:00,68.0,-99.9,29.62,South,183,10.0,17.0,-999,-99.99,,,-99.99,,2013-06-29 04:41:00,
2013-06-29 01:01:00,67.0,-99.9,29.62,SSW,195,9.0,20.0,-999,-99.99,,,-99.99,,2013-06-29 05:01:00,
2013-06-29 01:11:00,67.0,-99.9,29.62,South,186,9.0,18.0,-999,-99.99,,,-99.99,,2013-06-29 05:11:00,
2013-06-29 01:52:00,67.0,-99.9,29.60,South,186,9.0,14.0,-999,-99.99,,,-99.99,,2013-06-29 05:52:00,
2013-06-29 02:01:00,67.0,-99.9,29.61,SSW,195,11.0,16.0,-999,-99.99,,,-99.99,,2013-06-29 06:01:00,
2013-06-29 02:12:00,67.0,-99.9,29.61,South,191,10.0,15.0,-999,-99.99,,,-99.99,,2013-06-29 06:12:00,
2013-06-29 02:43:00,67.0,-99.9,29.60,South,188,9.0,17.0,-999,-99.99,,,-99.99,,2013-06-29 06:43:00,
2013-06-29 02:53:00,66.0,-99.9,29.59,South,178,7.0,15.0,-999,-99.99,,,-99.99,,2013-06-29 06:53:00,
2013-06-29 03:02:00,66.0,-99.9,29.60,South,186,7.0,18.0,-999,-99.99,,,-99.99,,2013-06-29 07:02:00,
2013-06-29 03:12:00,66.0,-99.9,29.59,South,178,8.0,15.0,-999,-99.99,,,-99.99,,2013-06-29 07:12:00,
2013-06-29 03:43:00,67.0,-99.9,29.59,South,184,8.0,15.0,-999,-99.99,,,-99.99,,2013-06-29 07:43:00,
2013-06-29 03:53:00,67.0,-99.9,29.59,South,179,10.0,15.0,-999,-99.99,,,-99.99,,2013-06-29 07:53:00,
2013-06-29 04:01:00,67.0,-99.9,29.59,South,181,8.0,15.0,-999,-99.99,,,-99.99,,2013-06-29 08:01:00,
2013-06-29 04:34:00,67.0,-99.9,29.60,South,180,9.0,17.0,-999,-99.99,,,-99.99,,2013-06-29 08:34:00,
2013-06-29 04:43:00,67.0,-99.9,29.60,South,176,9.0,15.0,-999,-99.99,,,-99.99,,2013-06-29 08:43:00,
2013-06-29 04:52:00,67.0,-99.9,29.60,South,174,10.0,15.0,-999,-99.99,,,-99.99,,2013-06-29 08:52:00,
2013-06-29 05:02:00,67.0,-99.9,29.59,South,175,10.0,15.0,-999,-99.99,,,-99.99,,2013-06-29 09:02:00,
2013-06-29 05:12:00,67.0,-99.9,29.59,South,177,11.0,17.0,-999,-99.99,,,-99.99,,2013-06-29 09:12:00,
2013-06-29 05:33:00,68.0,-99.9,29.59,South,175,12.0,19.0,-999,-99.99,,,-99.99,,2013-06-29 09:33:00,
2013-06-29 05:42:00,68.0,-99.9,29.59,SSE,166,11.0,20.0,-999,-99.99,,,-99.99,,2013-06-29 09:42:00,
2013-06-29 05:53:00,67.0,-99.9,29.60,South,182,12.0,18.0,-999,-99.99,,,-99.99,,2013-06-29 09:53:00,
2013-06-29 06:01:00,68.0,-99.9,29.60,South,184,11.0,19.0,-999,-99.99,,,-99.99,,2013-06-29 10:01:00,
2013-06-29 06:33:00,67.0,-99.9,29.60,South,172,12.0,21.0,-999,-99.99,,,-99.99,,2013-06-29 10:33:00,
2013-06-29 06:43:00,67.0,-99.9,29.61,South,178,9.0,19.0,-999,-99.99,,,-99.99,,2013-06-29 10:43:00,
2013-06-29 06:53:00,67.0,-99.9,29.61,South,175,12.0,20.0,-999,-99.99,,,-99.99,,2013-06-29 10:53:00,
2013-06-29 07:02:00,67.0,-99.9,29.61,South,187,12.0,19.0,-999,-99.99,,,-99.99,,2013-06-29 11:02:00,
2013-06-29 07:11:00,68.0,-99.9,29.61,South,189,15.0,24.0,-999,-99.99,,,-99.99,,2013-06-29 11:11:00,
2013-06-29 07:33:00,68.0,-99.9,29.61,South,186,13.0,19.0,-999,-99.99,,,-99.99,,2013-06-29 11:33:00,
2013-06-29 07:43:00,68.0,-99.9,29.62,SSW,192,11.0,18.0,-999,-99.99,,,-99.99,,2013-06-29 11:43:00,
2013-06-29 07:53:00,68.0,-99.9,29.62,SSW,192,11.0,18.0,-999,-99.99,,,-99.99,,2013-06-29 11:53:00,
2013-06-29 08:02:00,67.0,-99.9,29.63,SSW,193,9.0,22.0,-999,-99.99,,,-99.99,,2013-06-29 12:02:00,
2013-06-29 08:12:00,68.0,-99.9,29.64,SSW,193,12.0,20.0,-999,-99.99,,,-99.99,,2013-06-29 12:12:00,
2013-06-29 08:34:00,67.0,-99.9,29.64,SSW,193,9.0,20.0,-999,-99.99,,,-99.99,,2013-06-29 12:34:00,
2013-06-29 08:43:00,67.0,-99.9,29.64,SSW,195,13.0,19.0,-999,-99.99,,,-99.99,,2013-06-29 12:43:00,
2013-06-29 08:53:00,67.0,-99.9,29.65,South,188,14.0,19.0,-999,-99.99,,,-99.99,,2013-06-29 12:53:00,
2013-06-29 09:02:00,67.0,-99.9,29.65,South,189,10.0,20.0,-999,-99.99,,,-99.99,,2013-06-29 13:02:00,
2013-06-29 09:43:00,67.0,-99.9,29.64,SSW,197,8.0,14.0,-999,-99.99,,,-99.99,,2013-06-29 13:43:00,
2013-06-29 10:02:00,67.0,-99.9,29.64,SSW,198,11.0,16.0,-999,-99.99,,,-99.99,,2013-06-29 14:02:00,
2013-06-29 10:45:00,67.0,-99.9,29.65,South,183,9.0,17.0,-999,-99.99,,,-99.99,,2013-06-29 14:45:00,
2013-06-29 10:54:00,67.0,-99.9,29.65,SSW,197,9.0,18.0,-999,-99.99,,,-99.99,,2013-06-29 14:54:00,
2013-06-29 11:02:00,67.0,-99.9,29.65,SSW,196,12.0,19.0,-999,-99.99,,,-99.99,,2013-06-29 15:02:00,
2013-06-29 11:11:00,67.0,-99.9,29.65,SSW,196,12.0,19.0,-999,-99.99,,,-99.99,,2013-06-29 15:11:00,
2013-06-29 11:22:00,67.0,-99.9,29.65,SSW,198,10.0,19.0,-999,-99.99,,,-99.99,,2013-06-29 15:22:00,
2013-06-29 11:33:00,67.0,-99.9,29.66,SSW,200,10.0,22.0,-999,-99.99,,,-99.99,,2013-06-29 15:33:00,
2013-06-29 11:42:00,67.0,-99.9,29.67,SSW,201,11.0,19.0,-999,-99.99,,,-99.99,,2013-06-29 15:42:00,
2013-06-29 11:54:00,67.0,-99.9,29.67,SSW,200,10.0,19.0,-999,-99.99,,,-99.99,,2013-06-29 15:54:00,
2013-06-29 12:02:00,69.0,-99.9,29.67,SSW,202,12.0,19.0,-999,-99.99,,,-99.99,,2013-06-29 16:02:00,
2013-06-29 12:12:00,69.0,-99.9,29.67,SSW,202,9.0,19.0,-999,-99.99,,,-99.99,,2013-06-29 16:12:00,
2013-06-29 12:23:00,69.0,-99.9,29.67,SSW,202,9.0,19.0,-999,-99.99,,,-99.99,,2013-06-29 16:23:00,
2013-06-29 12:34:00,67.0,-99.9,29.69,SSW,213,9.0,18.0,-999,-99.99,,,-99.99,,2013-06-29 16:34:00,
2013-06-29 12:43:00,67.0,-99.9,29.69,SSW,206,8.0,15.0,-999,-99.99,,,-99.99,,2013-06-29 16:43:00,
2013-06-29 12:53:00,67.0,-99.9,29.68,SSW,193,9.0,17.0,-999,-99.99,,,-99.99,,2013-06-29 16:53:00,
2013-06-29 13:02:00,68.0,-99.9,29.67,SSW,193,9.0,12.0,-999,-99.99,,,-99.99,,2013-06-29 17:02:00,
2013-06-29 13:12:00,69.0,-99.9,29.67,SSW,196,9.0,14.0,-999,-99.99,,,-99.99,,2013-06-29 17:12:00,
2013-06-29 13:34:00,69.0,-99.9,29.68,SSW,196,11.0,17.0,-999,-99.99,,,-99.99,,2013-06-29 17:34:00,
2013-06-29 13:42:00,69.0,-99.9,29.68,SSW,203,10.0,16.0,-999,-99.99,,,-99.99,,2013-06-29 17:42:00,
2013-06-29 13:53:00,69.0,-99.9,29.68,SSW,199,13.0,19.0,-999,-99.99,,,-99.99,,2013-06-29 17:53:00,
2013-06-29 14:02:00,69.0,-99.9,29.68,South,191,13.0,18.0,-999,-99.99,,,-99.99,,2013-06-29 18:02:00,
2013-06-29 14:12:00,69.0,-99.9,29.69,SSW,197,13.0,19.0,-999,-99.99,,,-99.99,,2013-06-29 18:12:00,
2013-06-29 14:22:00,69.0,-99.9,29.69,SSW,197,13.0,19.0,-999,-99.99,,,-99.99,,2013-06-29 18:22:00,
2013-06-29 14:34:00,69.0,-99.9,29.69,SSW,197,12.0,18.0,-999,-99.99,,,-99.99,,2013-06-29 18:34:00,
2013-06-29 14:43:00,69.0,-99.9,29.69,SSW,202,12.0,19.0,-999,-99.99,,,-99.99,,2013-06-29 18:43:00,
2013-06-29 14:53:00,69.0,-99.9,29.70,SSW,201,11.0,17.0,-999,-99.99,,,-99.99,,2013-06-29 18:53:00,
2013-06-29 15:01:00,68.0,-99.9,29.70,SSW,197,12.0,21.0,-999,-99.99,,,-99.99,,2013-06-29 19:01:00,
2013-06-29 15:34:00,69.0,-99.9,29.70,SSW,201,11.0,21.0,-999,-99.99,,,-99.99,,2013-06-29 19:34:00,
2013-06-29 15:43:00,69.0,-99.9,29.70,SSW,198,11.0,21.0,-999,-99.99,,,-99.99,,2013-06-29 19:43:00,
2013-06-29 15:54:00,69.0,-99.9,29.70,SSW,197,11.0,24.0,-999,-99.99,,,-99.99,,2013-06-29 19:54:00,
2013-06-29 16:02:00,68.0,-99.9,29.70,SSW,199,12.0,19.0,-999,-99.99,,,-99.99,,2013-06-29 20:02:00,
2013-06-29 16:12:00,68.0,-99.9,29.71,SSW,200,11.0,20.0,-999,-99.99,,,-99.99,,2013-06-29 20:12:00,
2013-06-29 16:23:00,68.0,-99.9,29.71,SSW,200,11.0,20.0,-999,-99.99,,,-99.99,,2013-06-29 20:23:00,
2013-06-29 16:33:00,68.0,-99.9,29.71,South,191,11.0,18.0,-999,-99.99,,,-99.99,,2013-06-29 20:33:00,
2013-06-29 16:43:00,68.0,-99.9,29.71,South,191,11.0,18.0,-999,-99.99,,,-99.99,,2013-06-29 20:43:00,
2013-06-29 16:52:00,68.0,-99.9,29.71,South,191,11.0,18.0,-999,-99.99,,,-99.99,,2013-06-29 20:52:00,
2013-06-29 19:02:00,67.0,-99.9,29.72,South,191,6.0,15.0,-999,-99.99,,,-99.99,,2013-06-29 23:02:00,
2013-06-29 19:12:00,67.0,-99.9,29.72,South,190,10.0,16.0,-999,-99.99,,,-99.99,,2013-06-29 23:12:00,
2013-06-29 19:24:00,67.0,-99.9,29.72,South,190,10.0,16.0,-999,-99.99,,,-99.99,,2013-06-29 23:24:00,
2013-06-29 19:34:00,67.0,-99.9,29.73,SSW,193,9.0,14.0,-999,-99.99,,,-99.99,,2013-06-29 23:34:00,
2013-06-29 19:53:00,66.0,-99.9,29.72,SSW,193,9.0,16.0,-999,-99.99,,,-99.99,,2013-06-29 23:53:00,
2013-06-29 20:02:00,66.0,-99.9,29.72,South,188,8.0,16.0,-999,-99.99,,,-99.99,,2013-06-30 00:02:00,
2013-06-29 20:12:00,66.0,-99.9,29.73,South,191,8.0,13.0,-999,-99.99,,,-99.99,,2013-06-30 00:12:00,
2013-06-29 20:22:00,66.0,-99.9,29.73,South,191,8.0,13.0,-999,-99.99,,,-99.99,,2013-06-30 00:22:00,
2013-06-29 20:34:00,66.0,-99.9,29.74,SSW,192,10.0,18.0,-999,-99.99,,,-99.99,,2013-06-30 00:34:00,
2013-06-29 20:43:00,66.0,-99.9,29.75,South,187,9.0,16.0,-999,-99.99,,,-99.99,,2013-06-30 00:43:00,
2013-06-29 20:52:00,66.0,-99.9,29.75,SSW,192,8.0,18.0,-999,-99.99,,,-99.99,,2013-06-30 00:52:00,
2013-06-29 21:01:00,66.0,-99.9,29.75,SSW,193,9.0,14.0,-999,-99.99,,,-99.99,,2013-06-30 01:01:00,
2013-06-29 21:12:00,66.0,-99.9,29.75,South,187,8.0,15.0,-999,-99.99,,,-99.99,,2013-06-30 01:12:00,
2013-06-29 21:33:00,66.0,-99.9,29.76,SSW,195,8.0,15.0,-999,-99.99,,,-99.99,,2013-06-30 01:33:00,
2013-06-29 21:44:00,67.0,-99.9,29.76,SSW,199,9.0,15.0,-999,-99.99,,,-99.99,,2013-06-30 01:44:00,
2013-06-29 21:53:00,66.0,-99.9,29.77,SSW,203,8.0,15.0,-999,-99.99,,,-99.99,,2013-06-30 01:53:00,
2013-06-29 22:02:00,66.0,-99.9,29.77,SSW,193,8.0,13.0,-999,-99.99,,,-99.99,,2013-06-30 02:02:00,
2013-06-29 22:12:00,66.0,-99.9,29.77,South,191,7.0,11.0,-999,-99.99,,,-99.99,,2013-06-30 02:12:00,
2013-06-29 22:34:00,66.0,-99.9,29.78,South,186,9.0,15.0,-999,-99.99,,,-99.99,,2013-06-30 02:34:00,
2013-06-29 22:43:00,66.0,-99.9,29.78,South,186,8.0,13.0,-999,-99.99,,,-99.99,,2013-06-30 02:43:00,
2013-06-29 22:53:00,66.0,-99.9,29.78,South,186,8.0,14.0,-999,-99.99,,,-99.99,,2013-06-30 02:53:00,
2013-06-29 23:02:00,66.0,-99.9,29.78,South,191,9.0,12.0,-999,-99.99,,,-99.99,,2013-06-30 03:02:00,
2013-06-29 23:23:00,66.0,-99.9,29.78,SSW,203,8.0,17.0,-999,-99.99,,,-99.99,,2013-06-30 03:23:00,
2013-06-29 23:34:00,66.0,-99.9,29.78,SSW,195,8.0,11.0,-999,-99.99,,,-99.99,,2013-06-30 03:34:00,
2013-06-29 23:53:00,65.0,-99.9,29.79,South,184,5.0,14.0,-999,-99.99,,,-99.99,,2013-06-30 03:53:00,